Regional Weather Roundup
Issued by NWS

Home | Current Version | Previous Version | Graphics & Text | Print | Product List | Glossary On
Versions: 1 2 3 4 5 6 7 8 9 10 11 12 13 14 15 16 17 18 19 20 21 22 23 24 25 26 27 28 29 30 31 32 33 34 35 36 37 38 39 40 41 42 43 44 45 46 47 48 49 50
000
ASUS43 KLOT 280901
RWRIL

ILLINOIS REGIONAL WEATHER ROUNDUP
NATIONAL WEATHER SERVICE CHICAGO/ROMEOVILLE IL
400 AM CDT FRI AUG 28 2015

NOTE: "FAIR" INDICATES FEW OR NO CLOUDS BELOW 12,000 FEET WITH NO
SIGNIFICANT WEATHER AND/OR OBSTRUCTIONS TO VISIBILITY.

* THESE STATIONS ARE NOT UNDER NWS QUALITY CONTROL. THEY ALSO MAY NOT
  REPORT WEATHER SUCH AS PRECIPITATION OR FOG.

ILZ001-002-007-009-015-016-024-281000-
NORTHWEST ILLINOIS

CITY           SKY/WX    TMP DP  RH WIND       PRES   REMARKS
MOLINE         CLOUDY    62  57  83 SE3       30.08S
STERLING*      CLOUDY    61  57  88 SE3       30.08S
$$

ILZ003-004-008-010-011-017-018-281000-
NORTH CENTRAL ILLINOIS

CITY           SKY/WX    TMP DP  RH WIND       PRES   REMARKS
ROCKFORD       CLOUDY    60  55  83 CALM      30.12F
FREEPORT*      CLOUDY    58  56  92 S6        30.12F
$$

ILZ005-006-012>014-019>023-281000-
NORTHEAST ILLINOIS

CITY           SKY/WX    TMP DP  RH WIND       PRES   REMARKS
CHICAGO-OHARE  PTCLDY    59  55  87 S3        30.12S
CHICAGO-MIDWAY PTCLDY    63  55  75 SE5       30.12F
AURORA         PTCLDY    58  55  90 CALM      30.12S FOG
LANSING*       CLEAR     56  55  95 CALM      30.13S
WAUKEGAN       CLEAR     54  53  97 CALM      30.11F FOG
DUPAGE AIRPORT PTCLDY    55  53  93 CALM      30.11F FOG
WHEELING       CLEAR     56  52  86 CALM      30.13F
NORTHERLY ISL    N/A     62  57  83 SE3         N/A
$$

LMZ740>746-281000-
SOUTHERN LAKE MICHIGAN

STATION/POSITION SKY/WX   TEMP    WIND        PRES    VSBY  WAVE
                          AIR SEA DIR/SP/G                  HT/PER
                          (F)     (DEG/KT/KT) (MB)    (MI)  (FT/S)
SOUTHERN BUOY              66 67  170/ 10/ 12 1020.0F         1/ 3
WILMETTE HARBOR            61 59  330/  4/  6   N/A           1
HARRISON CRIB              66     150/ 10/ 12   N/A
BURNHAM HARBOR             62     160/  3/  5   N/A
CALUMET HARBOR             63     160/  4/  6   N/A
BURNS HARBOR               63     140/  8/ 12 1020.7F
MICHIGAN CITY              60     120/  9/ 11   N/A
MICHIGAN CITY 6N           64 70  160/ 12/ 16   N/A           1
ST. JOSEPH                 63 70  180/ 10/ 14   N/A           1
$$

ILZ025>027-034>036-040-047-049-050-058-095>099-281000-
WEST-CENTRAL ILLINOIS

CITY           SKY/WX    TMP DP  RH WIND       PRES   REMARKS
QUINCY         PTCLDY    60  56  86 SE6       30.08S
MACOMB*        MOCLDY    54  54  99 CALM      30.12R
$$

ILZ028>032-037-038-041>044-048-051>054-059>061-281000-
CENTRAL ILLINOIS

CITY           SKY/WX    TMP DP  RH WIND       PRES   REMARKS
DECATUR        PTCLDY    56  54  93 CALM      30.11F
PEORIA         PTCLDY    64  58  80 SE6       30.10F
SPRINGFIELD    CLEAR     60  57  89 CALM      30.11R
TAYLORVILLE    NOT AVBL
$$

ILZ033-039-045-046-055>057-062-063-281000-
EAST-CENTRAL ILLINOIS

CITY           SKY/WX    TMP DP  RH WIND       PRES   REMARKS
CHAMPAIGN      CLEAR     58  56  93 E5        30.12S
MATTOON        PTCLDY    57  55  93 S5        30.12R
$$

ILZ079-100>102-281000-
SOUTHWEST ILLINOIS

CITY           SKY/WX    TMP DP  RH WIND       PRES   REMARKS
CAHOKIA*       CLEAR     59  57  93 CALM      30.10S
$$

ILZ064>066-069>071-074>076-080>082-084>086-088>090-092>094-281000-
SOUTH-CENTRAL ILLINOIS

CITY           SKY/WX    TMP DP  RH WIND       PRES   REMARKS
CARBONDALE     FOG       56  55  97 CALM      30.11R VSB 1
MT. VERNON     CLEAR     55  52  88 CALM      30.13R
SALEM*         CLEAR     58  56  94 CALM      30.12R
$$

ILZ067-068-072-073-078-083-087-091-281000-
SOUTHEAST ILLINOIS

CITY           SKY/WX    TMP DP  RH WIND       PRES   REMARKS
LAWRENCEVILLE  CLEAR     60  58  92 NE3       30.14R
FLORA*         CLEAR     55  54  95 CALM      30.12S
ROBINSON*      CLEAR     53  52  96 CALM      30.14S
$$

ABBREVIATIONS USED IN REMARKS
   TC - TEMPERATURE IN CELSIUS
  WCI - WIND CHILL INDEX
   HX - HEAT INDEX
  VSB - VISIBILITY
$$



USA.gov is the U.S. government's official web portal to all federal, state and local government web resources and services.